• Processing (Info)

  • MPEC 2023-R54 : 2023 RE1

    The following Minor Planet Electronic Circular may be linked-to from your own Web pages, but must not otherwise be redistributed electronically.

    A form allowing access to any MPEC is at the bottom of this page.


    Read MPEC 2023-R53 Read MPEC 2023-R55


    M.P.E.C. 2023-R54                             Issued 2023 September 8, 03:43 UT
    
         The Minor Planet Electronic Circulars contain information on unusual
             minor planets, routine data on comets and natural satellites,
             and occasional editorial announcements.  They are published
        on behalf of Division F of the International Astronomical Union by the
              Minor Planet Center, Smithsonian Astrophysical Observatory,
                              Cambridge, MA 02138, U.S.A.
    			  
                 Prepared using the Tamkin Foundation Computer Network
    
                                  MPC@CFA.HARVARD.EDU
                URL https://www.minorplanetcenter.net/    ISSN 1523-6714
    
                                    2023 RE1                                 
    
    
    Observations:
         K23R01E*1C2023 09 06.33440223 58 28.207-02 15 08.14         19.88GVER054G96
         K23R01E 1C2023 09 06.34001223 58 28.110-02 16 14.63         20.27GVER054G96
         K23R01E 1C2023 09 06.34560323 58 28.027-02 17 20.00         20.15GVER054G96
         K23R01E 1C2023 09 06.35119023 58 27.908-02 18 26.86         20.21GVER054G96
         K23R01E 1C2023 09 06.48673223 58 26.100-02 45 04.10         20.20GVER054G96
         K23R01E 1C2023 09 06.48750823 58 26.010-02 45 13.10         20.05GVER054G96
         K23R01E 1C2023 09 06.48827223 58 26.120-02 45 22.60         20.28GVER054G96
         K23R01E 0B2023 09 06.96383 23 58 30.90 -04 16 32.0          19.9 VZER054M49
         K23R01E 0B2023 09 06.97373 23 58 30.67 -04 18 25.1          20.3 VZER054M49
         K23R01E 0B2023 09 06.98363 23 58 30.46 -04 20 18.8          19.8 VZER054M49
         K23R01E  C2023 09 07.28728223 58 32.468-05 18 43.27         20.2 GVER054654
         K23R01E  C2023 09 07.28921323 58 32.444-05 19 05.12         20.2 GVER054654
         K23R01E pC2023 09 08.02383423 58 31.41 -07 34 26.1          19.9 GVER054L01
         K23R01E pC2023 09 08.02594023 58 31.41 -07 34 49.8          19.6 GVER054L01
         K23R01E KC2023 09 08.02829523 58 31.41 -07 35 15.7          19.7 GVER054L01
    
    Observer details:
    654 Table Mountain Observatory, Wrightwood-PHMC.  Observers N. Evans, P. Choi,
        N. Saini, C. Zhai, R. Trahan, M. Shao.  1.0-m Reflector + CCD.
    G96 Mt. Lemmon Survey.  Observer A. R. Gibbs.  Measurers E. J. Christensen, D.
        Fay, J. B. Fazekas, D. C. Fuls, A. R. Gibbs, A. D. Grauer, H. Groeller, J.
        K. Hogan, R. A. Kowalski, S. M. Larson, G. J. Leonard, D. Rankin, R. L.
        Seaman, A. Serrano, F. C. Shelly, K. W. Wierzchos.  1.5-m reflector + 10K
        CCD.
    L01 Visnjan Observatory, Tican.  Observer K. Korlevic.  1.0-m f/2.9 reflector
        + CCD.
    M49 IAS Remote Observatory, Hakos.  Observers D. Husar, M. Junius.  Measurer
        D. Husar.  0.25-m f/4.6 reflector + CMO.
    
    Orbital elements:
    2023 RE1                                                 Earth MOID = 0.1239 AU
    Epoch 2023 Sept. 13.0 TT = JDT 2460200.5                Veres                   
    M  47.10825              (2000.0)            P               Q                  
    n   0.60824339     Peri.  106.03191     +0.04554848     +0.99069313             
    a   1.3795934      Node   164.74021     -0.99585229     +0.03490716             
    e   0.3066923      Incl.   29.16619     +0.07876266     -0.13156218             
    P   1.62           H   23.28          G   0.15           U   9                  
    Residuals in seconds of arc
    230906 G96  0.1-  0.3+    230906 G96  1.0-  0.2+    230907 654  0.0   0.1+
    230906 G96  0.2-  0.3+    230906 G96  0.8+  0.4-    230907 654  0.1+  0.0
    230906 G96  0.1-  1.0+    230906 M49  0.6+  0.3-    230908 L01  0.6-  0.7+
    230906 G96  0.6-  0.3+    230906 M49  0.1-  0.2+    230908 L01  0.1-  0.2-
    230906 G96  0.3+  0.0     230906 M49  0.4-  0.0     230908 L01  0.5+  0.6-
    
    Ephemeris:
    2023 RE1                 a,e,i = 1.38, 0.31, 29                  q = 0.9565
    Date    TT    R. A. (2000) Decl.     Delta      r    Elong.  Phase     V
    2023 08 09    23 20 56.0 +72 36 26   0.2444  1.0381    88.8    77.6    23.0
    ...
    2023 08 24    23 52 04.2 +44 44 01   0.1569  1.0965   119.3    53.6    21.4
    ...
    2023 09 01    23 57 21.2 +16 58 20   0.1407  1.1311   147.9    28.3    20.5
    ...
    2023 09 07    23 58 30.3 -04 23 36   0.1545  1.1581   165.4    12.7    20.3
    2023 09 08    23 58 31.9 -07 29 16   0.1588  1.1626   166.4    11.8    20.3
    2023 09 09    23 58 31.2 -10 24 29   0.1637  1.1672   166.5    11.6    20.4
    ...
    2023 09 15    23 57 53.1 -24 16 38   0.2015  1.1950   157.9    18.4    21.1
    ...
    2023 09 23    23 56 28.7 -35 01 41   0.2672  1.2326   145.2    27.7    22.1
    ...
    2023 10 08    23 55 49.3 -42 51 33   0.4126  1.3032   129.9    36.0    23.4
    
    M. P. C. Staff               (C) Copyright 2023 MPC           M.P.E.C. 2023-R54
    


    Read MPEC 2023-R53 Read MPEC 2023-R55


    MPEC number:

    Enter an MPEC number in one of the following forms:

    • 1997-B01 (the full form)
    • J97B01 (the packed version of the full form)
    • B01 (the abbreviated form)